Flag for Canada Weather past 2 weeks in Sherbrooke, Quebec, Canada

Now
1 °F

Light snow. Sunny.


Feels Like: -15 °F
Forecast: -15 / -2 °F
Wind: 12 mph from West

Location: Sherbrooke

Current Time: Feb 1, 2015 at 3:16:45 PM

Latest Report: Feb 1, 2015 at 2:00 PM


Visibility: 9 mi

Pressure: 30.21 "Hg

Humidity: 60%

Dew point: -9 °F

Location of SherbrookeLocation

Historic Weather in Sherbrooke — Graph

°F

Sherbrooke temperature yesterday

Maximum temperature yesterday: 3 °F (at 12:00 AM)
Minimum temperature yesterday: -9 °F (at 7:03 AM)
Average temperature yesterday: -4 °F

Past Weeks' High & Low Weather Summary

 TemperatureHumidityPressure
High43 °F (Jan 18, 4:00 PM)100% (Jan 18, 8:00 PM)30.37 "Hg (Jan 18, 8:00 PM)
Low-18 °F (Jan 26, 6:00 AM)43% (Jan 29, 2:00 PM)29.24 "Hg (Jan 25, 12:00 AM)
Average11 °F79%29.96 "Hg
* Reported Jan 17 2:00 PM — Feb 1 2:00 PM, Sherbrooke, Weather by CustomWeather, © 2014

Note: Actual official high and low records may vary slightly from our data, if they occured in-between our weather recording intervals... More about our weather records

Advertising

Sherbrooke weather history for previous 24 hours

 ConditionsComfort  
Time TempWeatherWind HumidityBarometerVisibility
2:00 PM
Feb 1
1 °FLight snow. Sunny.12 mph60%30.21 "Hg9 mi
1:57 PM1 °FLight snow. Sunny.17 mph60%30.20 "Hg9 mi
1:00 PM1 °FLight snow. Sunny.17 mph60%30.22 "Hg9 mi
12:00 PM1 °FSunny.12 mph55%30.21 "Hg9 mi
11:00 AM1 °FPartly sunny.15 mph65%30.22 "Hg5 mi
10:02 AM0 °FOvercast.10 mph71%30.23 "Hg6 mi
9:00 AM-2 °FPartly sunny.6 mph84%30.22 "Hg9 mi
8:00 AM-4 °FLight snow. More clouds than sun.3 mph92%30.20 "Hg3 mi
7:55 AM-4 °FLight snow. Cloudy.No wind92%30.20 "Hg3 mi
7:00 AM-4 °FClear.6 mph84%30.16 "Hg9 mi
6:00 AM0 °FOvercast.6 mph84%30.14 "Hg9 mi
5:00 AM-8 °FLight snow. Clear.3 mph92%30.11 "Hg9 mi
4:04 AM-8 °FLight snow. Mostly cloudy.No wind84%30.10 "Hg6 mi
3:02 AM-6 °FLight snow. Overcast.2 mph84%30.09 "Hg2 mi
2:00 AM-6 °FLight snow. Mostly cloudy.2 mph84%30.09 "Hg5 mi
1:46 AM-8 °FLight snow. Mostly cloudy.5 mph92%30.10 "Hg5 mi
1:00 AM-2 °FLight snow. Overcast.5 mph77%30.10 "Hg5 mi
12:47 AM-4 °FLight snow. Passing clouds.5 mph77%30.11 "Hg5 mi
12:00 AM-2 °FLight snow. Overcast.6 mph71%30.11 "Hg9 mi
11:00 PM
Jan 31
-6 °FOvercast.5 mph77%30.12 "Hg9 mi
10:00 PM-6 °FClear.5 mph77%30.13 "Hg9 mi
9:00 PM-8 °FClear.3 mph77%30.14 "Hg9 mi
8:00 PM-6 °FClear.9 mph70%30.14 "Hg9 mi
7:00 PM-4 °FClear.13 mph65%30.13 "Hg9 mi
6:00 PM-4 °FClear.9 mph65%30.11 "Hg9 mi
5:00 PM-2 °FClear.9 mph59%30.10 "Hg9 mi
4:00 PM0 °FSunny.14 mph54%30.09 "Hg9 mi
3:51 PM0 °FSunny.14 mph54%30.09 "Hg9 mi
3:00 PM0 °FLight snow. Sunny.17 mph54%30.09 "Hg9 mi
Weather by CustomWeather, © 2014

See weather overviewHow to use our weather pages